#timestamp,LO_Frequency,Hit,StdDev 
1581415215.5,286046998.4,N
1581415235.3,286046998.8,N
1581415255.1,286046997.0,N
1581415275.9,286046996.6,N
1581415295.7,286046999.3,N
1581415315.5,286046998.8,N
1581415335.4,286046999.5,N
1581415355.2,286046997.6,N
1581415375.1,286046996.7,N
1581415376.0,286046996.7,N
1581415395.8,286046996.6,N
1581415415.6,286046999.2,N
1581415435.5,286046997.3,N
1581415455.3,286046997.5,N
1581415475.2,286046994.9,Y
1581415495.9,286046999.4,P
1581415515.7,286046999.6,N
1581415535.6,286047001.1,N
1581415555.4,286046998.4,N
1581415575.3,286046998.5,N
1581415595.1,286047000.1,N
1581415596.0,286047000.1,N
1581415615.8,286047000.2,N
1581415635.7,286047002.1,N
1581415655.5,286047002.5,N
1581415675.3,286047001.6,N
1581415695.2,286047002.2,N
1581415715.0,286047002.5,N
1581415715.9,286047002.5,N
1581415735.8,286047000.8,N
1581415755.6,286047002.7,N
1581415775.4,286047004.4,N
1581415795.3,286047004.1,N
1581415815.1,286047002.7,N
1581415835.8,286047002.6,N
1581415855.7,286047002.1,N
1581415875.5,286047002.8,N
1581415895.4,286047002.4,N
1581415915.2,286047002.0,N
1581415935.0,286047001.6,N
1581415935.9,286047001.6,N
1581415955.8,286047002.1,N
1581415975.6,286047002.1,N
1581415995.4,286047002.6,N
1581416015.3,286047001.8,N
1581416035.1,286047003.1,N
1581416055.9,286047004.2,Y
1581416075.7,286047003.8,P
1581416095.5,286047002.6,N
1581416115.4,286047003.1,P
1581416135.2,286047005.8,Y
1581416155.1,286047001.4,P
1581416156.0,286047001.4,N
1581416175.8,286047001.8,N
1581416195.6,286047003.2,Y
1581416215.5,286047005.3,P
1581416235.3,286047007.3,P
1581416255.2,286047005.1,N
1581416275.9,286047007.2,Y
1581416295.7,286047001.3,P
1581416315.6,286047004.2,N
1581416335.4,286047001.7,N
1581416355.2,286047001.3,N
1581416375.1,286047004.0,N
1581416376.0,286047004.0,N
1581416395.8,286047000.0,N
1581416415.7,286046998.1,N
1581416435.5,286046998.3,N
1581416455.3,286046998.4,N
1581416475.2,286046999.6,N
1581416495.0,286046996.2,N
1581416495.9,286046996.2,N
1581416515.8,286046997.0,N
1581416535.6,286046996.7,N
1581416555.4,286046996.9,N
1581416575.3,286046996.5,N
1581416595.1,286046998.5,N
1581416615.8,286046998.7,N
1581416635.7,286046999.0,N
1581416655.5,286046997.3,N
1581416675.4,286046997.3,N
1581416695.2,286046999.6,N
1581416715.0,286046996.5,N
1581416715.9,286046996.5,N
1581416735.8,286046997.3,N
1581416755.6,286047000.7,N
1581416775.5,286047000.4,N
1581416795.3,286047002.8,N
1581416815.1,286046999.9,N
1581416835.9,286046999.9,N
1581416855.7,286046998.3,N
1581416875.6,286046998.7,N
1581416895.4,286046998.5,N
1581416915.2,286047000.3,N
1581416935.1,286046999.9,N
1581416966.0,286046998.2,E
1581416975.0,286047000.9,N
1581416975.9,286047000.9,P
1581416995.8,286047000.7,P
1581417015.6,286046998.3,Y
1581417035.4,286046997.1,P
1581417055.3,286047000.6,N
1581417075.1,286046999.9,N
1581417095.8,286047002.2,N
1581417115.7,286046999.7,N
1581417135.5,286046999.7,N
1581417155.4,286047002.2,N
1581417175.2,286047001.5,N
1581417195.0,286047002.5,N
1581417196.0,286047002.5,N
1581417215.8,286047000.2,N
1581417235.6,286047002.1,N
1581417255.5,286047002.6,N
1581417275.3,286047003.9,N
1581417295.2,286047001.5,N
1581417315.9,286047002.8,N
1581417335.7,286047002.5,N
1581417355.6,286047000.9,N
1581417375.4,286046999.9,N
1581417395.2,286047000.2,N
1581417415.1,286047000.5,N
1581417416.0,286047000.5,N
1581417435.8,286047001.1,N
1581417455.7,286047001.2,N
1581417475.5,286047002.3,N
1581417495.3,286047001.7,N
1581417515.2,286047002.1,N
1581417535.0,286047002.6,N
1581417535.9,286047002.6,N
1581417555.8,286047001.4,N
1581417575.6,286047000.8,N
1581417595.4,286046998.1,N
1581417615.3,286046998.3,N
1581417635.1,286046998.7,N
1581417655.8,286047001.1,N
1581417675.7,286047001.7,N
1581417695.5,286047001.4,N
1581417715.4,286047000.2,N
1581417735.2,286047001.9,N
1581417755.0,286047000.2,N
1581417755.9,286047000.2,N
1581417775.8,286047001.0,N
1581417795.6,286047001.2,N
1581417815.4,286047000.5,N
1581417835.3,286047002.6,N
1581417855.1,286047004.4,Y
1581417875.9,286046998.7,P
1581417895.7,286046998.4,N
1581417915.5,286046999.9,N
1581417935.4,286046998.3,N
1581417955.2,286046996.7,Y
1581417975.0,286047001.2,P
1581417976.0,286047001.2,N
1581417995.8,286046998.7,N
1581418015.6,286047001.2,N
1581418035.5,286047000.2,N
1581418055.3,286046999.9,N
1581418075.1,286047000.7,N
1581418095.9,286046997.9,N
1581418115.7,286046995.5,Y
1581418135.6,286046995.3,P
1581418155.4,286046999.0,N
1581418175.2,286046999.5,N
1581418195.1,286047000.5,N
1581418196.0,286047000.5,N
1581418215.8,286047002.3,N
1581418235.7,286047001.5,N
1581418255.5,286047002.6,N
1581418275.3,286047000.4,N
1581418295.2,286047002.2,N
1581418315.0,286047002.6,N
1581418315.9,286047002.6,N
1581418335.8,286047005.6,N
1581418355.6,286047003.5,N
1581418375.4,286047003.6,N
1581418395.3,286047004.8,N
1581418415.1,286047005.1,N
1581418435.8,286047004.9,N
1581418455.7,286047005.2,N
1581418475.5,286047005.2,N
1581418495.4,286047004.2,N
1581418515.2,286047003.6,N
1581418535.0,286047003.8,N
1581418535.9,286047003.8,N
1581418555.8,286047003.6,N
1581418575.6,286047003.2,N
1581418595.4,286047003.2,N
1581418615.3,286047003.7,N
1581418635.1,286047003.2,N
1581418655.9,286047006.4,N
1581418675.7,286047005.8,N
1581418695.5,286047005.5,N
1581418715.4,286047004.7,N
1581418735.2,286047006.0,Y
1581418755.1,286046999.8,P
1581418756.0,286046999.8,N
1581418775.8,286046996.7,N
1581418795.6,286046997.4,N
